[[{"header":{"parameterUnit":"m.s-1","parameterCategory":1,"la1":30.2991,"la2":30.254,"lo1":-89.0895,"lo2":-89.0444,"dy":0.0017,"dx":0.0017,"nx":28,"ny":28,"refTime":"2025-07-30T03:00:00:Z","depth":0,"parameterNumber":2,"parameterNumberName":"U-component_of_WINDS"},"data":[0,0,0,0,0,0,0,0,0,0,0,0,0,0,0,0,0,0,0,0,0,0,0,0,0,0,0,0,0,0,0,0,0,0,0,0,0,0,0,0,0,0,0,0,0,0,0,0,0,0,0,0,0,0,0,0,0,0,3.0684,3.0686,0,3.085,3.0852,3.0854,3.0787,3.0783,3.0779,3.0776,3.0952,3.096,3.0968,0,0,0,0,0,0,0,0,0,0,0,0,0,3.0318,3.0325,3.0684,3.0686,3.0688,3.085,3.0852,3.0854,3.0788,3.0783,3.0778,3.0774,3.0949,3.0959,3.0969,0,0,0,0,0,0,0,0,0,0,0,0,0,3.048,3.0327,3.0684,3.0674,3.0675,3.0849,3.0852,3.0855,3.0789,3.0783,3.0777,3.0772,3.0946,3.0958,3.0971,3.1165,0,0,3.1009,3.1014,0,0,0,0,0,0,0,0,3.0471,3.0493,3.0674,3.0675,3.0677,3.0792,3.0787,3.0959,3.079,3.0746,3.0776,3.0769,3.0904,3.092,3.0964,3.1174,3.1181,3.101,3.1018,3.1023,3.1026,0,0,0,0,0,0,0,3.046,3.0486,3.075,3.0677,3.0678,3.0665,3.0681,3.082,3.0856,3.0749,3.0745,3.0765,3.0904,3.0952,3.0967,3.1184,3.101,3.1021,3.1028,3.1033,3.1565,3.1571,0,0,0,0,0,0,3.0447,3.0477,3.0745,3.0755,3.0557,3.0676,3.0694,3.0761,3.0854,3.0863,3.077,3.0761,3.0933,3.0953,3.0973,3.1209,3.1023,3.1035,3.1042,3.1558,3.1566,3.1573,0,0,0,0,0,0,3.044,3.0472,3.0738,3.0615,3.0648,3.0688,3.0764,3.0767,3.0815,3.087,3.0877,3.0812,3.0929,3.0956,3.1118,3.1214,3.104,3.1052,3.155,3.156,3.157,3.1681,0,0,0,0,0,0,3.0429,3.0469,3.0542,3.0617,3.0654,3.0878,3.077,3.0775,3.0836,3.0827,3.0911,3.092,3.0927,3.11,3.1131,3.1228,3.1061,3.1542,3.1555,3.1566,3.1669,3.1693,3.1714,0,0,0,0,0,3.0416,3.0567,3.0546,3.0578,3.0745,3.0883,3.0905,3.0909,3.0844,3.0919,3.0954,3.0917,3.1198,3.1117,3.1151,3.1254,3.1536,3.1551,3.1565,3.1659,3.1689,3.1714,0,0,0,0,0,0,3.0504,3.0577,3.0554,3.0733,3.0802,3.0872,3.0966,3.094,3.1031,3.1018,3.1021,3.1041,3.1209,3.1247,3.1155,3.1449,3.1358,3.138,3.1417,3.1446,3.1468,3.1456,3.1072,0,0,0,0,0,3.0544,3.0647,3.0706,3.0859,3.0895,3.0925,3.0985,3.0982,3.1055,3.1084,3.1131,3.1206,3.1311,3.1381,3.148,3.1674,3.1693,3.1762,3.1785,3.1803,3.1823,3.1931,3.1963,3.1622,3.1622,3.1622,0,0,3.0627,3.068,3.0746,3.0878,3.0931,3.1041,3.095,3.1069,3.1152,3.1103,3.1259,3.1297,3.138,3.156,3.1641,3.1597,3.1921,3.1822,3.1836,3.1846,3.1949,3.1981,3.201,3.1632,3.163,3.1629,0,0,3.0836,3.0886,3.1019,3.1075,3.1156,3.1175,3.1208,3.1282,3.1305,3.1461,3.1427,3.1527,3.1708,3.1769,3.1824,3.2059,3.2029,3.2092,3.2211,3.2316,3.2343,3.2367,3.2452,3.2483,3.2111,3.2111,3.2111,0,3.0931,3.1093,3.1091,3.1215,3.1275,3.1234,3.1371,3.1426,3.1537,3.1581,3.153,3.1757,3.181,3.2005,3.2062,3.2107,3.2146,3.2082,3.2338,3.2362,3.2385,3.2467,3.2499,3.2118,3.2117,3.2117,3.2116,0,3.1206,3.1319,3.1418,3.1524,3.1596,3.1725,3.1746,3.182,3.1811,3.1836,3.1998,3.206,3.2173,3.2219,3.2212,3.2414,3.2384,3.2336,3.2245,3.2424,3.2501,3.2533,3.2129,3.2126,3.2124,3.2122,0,0,3.1473,3.1579,3.1615,3.1664,3.1752,3.1841,3.197,3.2079,3.2143,3.2222,3.2331,3.2486,3.2443,3.2505,3.2505,3.2598,3.2782,3.2538,3.2541,3.2583,3.3011,3.3047,3.3083,3.2763,3.2769,3.2773,3.3004,0,3.169,3.1914,3.1918,3.2124,3.2231,3.2195,3.2308,3.2376,3.2404,3.25,3.2532,3.2642,3.2575,3.2613,3.2703,3.2741,3.2869,3.2724,3.2868,3.2873,3.2848,3.3123,3.3162,3.3377,3.3034,3.3039,3.3043,0,3.1972,3.2059,3.2276,3.2351,3.2396,3.2497,3.2598,3.2689,3.2767,3.2781,3.2852,3.2839,3.2974,3.2878,3.3065,3.2967,3.3026,3.3054,3.3063,3.3077,3.2969,3.3146,3.3445,3.3478,3.309,3.3086,3.3083,0,3.2147,3.2319,3.2471,3.2514,3.2605,3.2677,3.2719,3.279,3.2856,3.2946,3.2989,3.3094,3.3152,3.3234,3.3251,3.3179,3.344,3.3345,3.3457,3.3457,3.3514,3.3511,3.3828,3.3551,3.355,3.355,3.3549,0,3.2389,3.2524,3.2551,3.2645,3.2796,3.2801,3.2951,3.2987,3.3052,3.3154,3.313,3.3228,3.3243,3.3345,3.3359,3.3514,3.354,3.3557,3.3559,3.356,3.3558,3.3599,3.3585,3.3558,3.3556,3.3555,3.3553,0,3.2611,3.2634,3.2798,3.2871,3.2892,3.3001,3.3064,3.3156,3.3181,3.3312,3.3343,3.3384,3.3503,3.3527,3.3669,3.3678,3.3862,3.3849,3.3836,3.3835,3.3947,3.3937,3.4303,3.4352,3.4041,3.4044,3.4047,0,3.2764,3.2866,3.295,3.3016,3.3061,3.3168,3.3235,3.3245,3.3316,3.3414,3.3495,3.361,3.3703,3.3896,3.394,3.4049,3.4039,3.416,3.4055,3.4053,3.4043,3.4037,3.4048,3.418,3.4183,3.4186,3.4188,0,3.3034,3.3041,3.3137,3.3239,3.332,3.3401,3.3478,3.3534,3.3554,3.3636,3.3757,3.3829,3.3973,3.409,3.4198,3.4244,3.4222,3.4221,3.4253,3.4255,3.4244,3.4253,3.3892,3.4213,3.421,3.4208,3.4207,3.4206,3.3227,3.3317,3.3391,3.35,3.3559,3.3632,3.3722,3.3759,3.3859,3.3976,3.3976,3.4109,3.4187,3.4331,3.4383,3.4489,3.4451,3.4497,3.4509,3.4521,3.4532,3.4226,3.4508,3.4508,3.4507,3.4507,3.4506,0,3.3497,3.3543,3.3643,3.3752,3.3839,3.3808,3.3892,3.3967,3.4084,3.4157,3.425,3.439,3.4503,3.4557,3.4669,3.4744,3.4736,3.4773,3.4768,3.478,3.4558,3.452,3.4777,3.4777,3.4777,3.4777,3.4777,3.4777,3.3648,3.38,3.3816,3.3999,3.4044,3.4172,3.4224,3.4292,3.4351,3.4508,3.4601,3.4635,3.4702,3.482,3.4923,3.4936,3.498,3.5022,3.5031,3.4823,3.4795,3.4769,3.4733,3.5031,3.5032,3.5244,3.5246,3.5247]},{"header":{"parameterUnit":"m.s-1","parameterCategory":1,"la1":30.2991,"la2":30.254,"lo1":-89.0895,"lo2":-89.0444,"dy":0.0017,"dx":0.0017,"nx":28,"ny":28,"refTime":"2025-07-30T03:00:00:Z","depth":0,"parameterNumber":3,"parameterNumberName":"V-component_of_WINDS"},"data":[0,0,0,0,0,0,0,0,0,0,0,0,0,0,0,0,0,0,0,0,0,0,0,0,0,0,0,0,0,0,0,0,0,0,0,0,0,0,0,0,0,0,0,0,0,0,0,0,0,0,0,0,0,0,0,0,0,0,6.0476,6.0477,0,6.0613,6.0614,6.0616,6.0578,6.0576,6.0573,6.057,6.0701,6.0707,6.0713,0,0,0,0,0,0,0,0,0,0,0,0,0,6.0171,6.0177,6.0475,6.0477,6.0479,6.0612,6.0614,6.0616,6.0579,6.0575,6.0572,6.0569,6.0699,6.0706,6.0714,0,0,0,0,0,0,0,0,0,0,0,0,0,6.0305,6.0179,6.0475,6.0477,6.0478,6.0612,6.0614,6.0617,6.0579,6.0575,6.0571,6.0567,6.0697,6.0706,6.0715,6.0853,0,0,6.0742,6.0746,0,0,0,0,0,0,0,0,6.0297,6.0316,6.0475,6.0477,6.0479,6.0574,6.0555,6.0695,6.0581,6.0541,6.057,6.0565,6.0662,6.0673,6.0708,6.0859,6.0864,6.0743,6.0749,6.0752,6.0755,0,0,0,0,0,0,0,6.0288,6.031,6.0529,6.0477,6.0479,6.0467,6.0481,6.0581,6.0622,6.0544,6.0542,6.0559,6.0662,6.0699,6.0711,6.0866,6.0743,6.0751,6.0756,6.076,6.1135,6.1139,0,0,0,0,0,0,6.0279,6.0302,6.0525,6.0533,6.0376,6.0476,6.0492,6.0548,6.0621,6.0629,6.0562,6.0557,6.0686,6.07,6.0715,6.0881,6.0752,6.0761,6.0766,6.113,6.1136,6.1141,0,0,0,0,0,0,6.0272,6.0299,6.0519,6.0418,6.0445,6.0486,6.0548,6.0552,6.059,6.0635,6.0641,6.0594,6.0683,6.0702,6.0819,6.0885,6.0765,6.0773,6.1125,6.1132,6.1138,6.1213,0,0,0,0,0,0,6.0264,6.0297,6.0352,6.0419,6.045,6.0624,6.0552,6.0558,6.0607,6.0601,6.0666,6.0673,6.0681,6.0806,6.0828,6.0895,6.078,6.1119,6.1128,6.1136,6.1205,6.1222,6.1236,0,0,0,0,0,6.0253,6.0366,6.0355,6.0382,6.0521,6.0628,6.0646,6.0656,6.0612,6.0666,6.0695,6.0671,6.0874,6.0818,6.0843,6.0913,6.1115,6.1126,6.1135,6.1198,6.1219,6.1236,0,0,0,0,0,0,6.0303,6.0375,6.0364,6.0503,6.056,6.0622,6.0691,6.0678,6.0746,6.0737,6.0744,6.0759,6.0878,6.0907,6.0843,6.105,6.0988,6.1003,6.1027,6.1046,6.1062,6.1052,6.0788,0,0,0,0,0,6.033,6.0415,6.0472,6.0589,6.0619,6.065,6.0697,6.07,6.0759,6.0782,6.0819,6.0874,6.095,6.1,6.1072,6.1209,6.1221,6.1269,6.1285,6.1297,6.1311,6.1383,6.1405,6.1174,6.1174,6.1174,0,0,6.0387,6.0437,6.049,6.06,6.0645,6.0729,6.067,6.0762,6.0824,6.0794,6.0908,6.0937,6.0998,6.1125,6.1183,6.1153,6.1377,6.131,6.132,6.1327,6.1396,6.1418,6.1437,6.1181,6.118,6.1179,0,0,6.0534,6.0582,6.0684,6.073,6.08,6.082,6.0845,6.0909,6.0928,6.1043,6.1022,6.1093,6.1225,6.1269,6.1309,6.1472,6.1451,6.1495,6.1575,6.1646,6.1665,6.1681,6.1738,6.1758,6.1508,6.1508,6.1508,0,6.0595,6.0725,6.0737,6.0832,6.0879,6.086,6.0961,6.1005,6.1093,6.1125,6.1091,6.1255,6.1295,6.1432,6.1472,6.1505,6.153,6.1487,6.1662,6.1678,6.1693,6.1747,6.1769,6.1513,6.1512,6.1512,6.1511,0,6.0796,6.0886,6.0959,6.1049,6.1105,6.1202,6.1226,6.1281,6.1278,6.1301,6.1416,6.1463,6.1545,6.1577,6.1575,6.1713,6.1692,6.166,6.1598,6.172,6.1771,6.1792,6.152,6.1518,6.1516,6.1515,0,0,6.0979,6.1074,6.1101,6.1141,6.1216,6.1284,6.1378,6.1461,6.1507,6.1568,6.1646,6.1757,6.1728,6.1773,6.1775,6.1838,6.1962,6.1797,6.1799,6.1826,6.2116,6.2139,6.2164,6.1949,6.1953,6.1956,6.211,0,6.1132,6.1304,6.1316,6.1469,6.1551,6.1533,6.1615,6.1668,6.1691,6.1761,6.1785,6.1864,6.1819,6.1846,6.1907,6.1934,6.202,6.1923,6.2019,6.2022,6.2004,6.2191,6.2216,6.236,6.213,6.2134,6.2136,0,6.1334,6.1405,6.1567,6.163,6.1664,6.1739,6.1815,6.1883,6.1941,6.1953,6.2004,6.1997,6.2091,6.2026,6.2153,6.2087,6.2126,6.2145,6.2151,6.216,6.2087,6.2204,6.2406,6.2427,6.2168,6.2165,6.2163,0,6.145,6.1585,6.17,6.1734,6.1811,6.1863,6.1897,6.1951,6.2,6.2065,6.2096,6.217,6.221,6.2266,6.2278,6.2229,6.2405,6.2341,6.2416,6.2415,6.2453,6.2451,6.2664,6.248,6.2479,6.2479,6.2478,0,6.162,6.1719,6.1753,6.1823,6.1933,6.1945,6.2053,6.2082,6.2131,6.2204,6.2191,6.2259,6.2271,6.2341,6.235,6.2454,6.2472,6.2483,6.2484,6.2484,6.2483,6.251,6.25,6.2485,6.2483,6.2482,6.2481,0,6.1768,6.1795,6.1919,6.1982,6.1999,6.2078,6.2129,6.2195,6.2217,6.2309,6.2331,6.2364,6.2445,6.2463,6.2559,6.2565,6.2688,6.2679,6.2669,6.2668,6.2742,6.2734,6.2979,6.3011,6.2807,6.2808,6.281,0,6.1875,6.1952,6.2023,6.2073,6.211,6.219,6.224,6.2254,6.2306,6.2378,6.2434,6.2515,6.258,6.271,6.274,6.2813,6.2805,6.2886,6.2816,6.2813,6.2806,6.2801,6.2808,6.2899,6.2902,6.2903,6.2905,0,6.2061,6.207,6.2145,6.2225,6.2285,6.2348,6.2406,6.2447,6.2468,6.2526,6.2611,6.2662,6.2761,6.284,6.2913,6.2943,6.2927,6.2927,6.2948,6.2948,6.2939,6.2945,6.2705,6.2921,6.2919,6.2918,6.2917,6.2917,6.2191,6.2258,6.232,6.2403,6.2449,6.2505,6.257,6.26,6.2672,6.2756,6.2758,6.285,6.2904,6.3001,6.3036,6.3105,6.308,6.311,6.3118,6.3125,6.3132,6.2929,6.3118,6.3118,6.3117,6.3117,6.3117,0,6.2376,6.2415,6.2491,6.2576,6.264,6.2623,6.2687,6.2741,6.2823,6.2877,6.2942,6.3038,6.3114,6.3151,6.3226,6.3274,6.3269,6.3293,6.329,6.3297,6.3151,6.3125,6.3297,6.3297,6.3297,6.3297,6.3296,6.3296,6.248,6.2593,6.2609,6.2743,6.278,6.2873,6.2911,6.296,6.3003,6.3113,6.3177,6.3202,6.3247,6.3325,6.3393,6.3402,6.3429,6.3458,6.3462,6.3325,6.3307,6.3289,6.3265,6.3464,6.3464,6.3602,6.3604,6.3605]}]]